This is the latest recevied weather packets stored in our database for station/object N5ATR. If no packets are shown the sender has not sent any weather packets the latest 10 day(s).
| Time | Temp. | Humidity | Pressure | Rain* | Wind** | Luminosity | Snow |
|---|---|---|---|---|---|---|---|
| 1778001978 | 12.78° C | 55% | 1011.3 hPa | 0 mm | - | 660 W/m² | - |
| 1778001674 | 12.78° C | 54% | 1011.4 hPa | 0 mm | - | 976 W/m² | - |
| 1778001369 | 12.78° C | 54% | 1011.6 hPa | 0 mm | - | 880 W/m² | - |
| 1778001066 | 11.67° C | 57% | 1011.4 hPa | 0 mm | - | 889 W/m² | - |
| 1778000763 | 11.67° C | 56% | 1011.4 hPa | 0 mm | - | 499 W/m² | - |
| 1778000460 | 11.67° C | 56% | 1011.6 hPa | 0 mm | - | 389 W/m² | - |
| 1778000154 | 11.11° C | 58% | 1011.4 hPa | 0 mm | - | 362 W/m² | - |
| 1777999851 | 11.11° C | 59% | 1011.4 hPa | 0 mm | - | 382 W/m² | - |
| 1777999546 | 11.11° C | 57% | 1011.3 hPa | 0 mm | - | 584 W/m² | - |
| 1777999244 | 10.56° C | 59% | 1011.6 hPa | 0 mm | - | 482 W/m² | - |
| 1777998943 | 10° C | 60% | 1011.7 hPa | 0 mm | - | 304 W/m² | - |
| 1777998640 | 9.44° C | 62% | 1011.7 hPa | 0 mm | - | 256 W/m² | - |
| 1777998338 | 10° C | 61% | 1011.8 hPa | 0 mm | - | 200 W/m² | - |
| 1777998036 | 10° C | 60% | 1011.7 hPa | 0 mm | - | 210 W/m² | - |
| 1777997732 | 10° C | 61% | 1012.3 hPa | 0 mm | - | 183 W/m² | - |
| 1777997429 | 9.44° C | 61% | 1011.8 hPa | 0 mm | - | 227 W/m² | - |
| 1777997127 | 9.44° C | 60% | 1012.1 hPa | 0 mm | - | 186 W/m² | - |
| 1777996824 | 10° C | 59% | 1011.8 hPa | 0 mm | - | 173 W/m² | - |
| 1777996520 | 10° C | 60% | 1011.8 hPa | 0 mm | - | 207 W/m² | - |
| 1777996217 | 9.44° C | 61% | 1012.2 hPa | 0 mm | - | 255 W/m² | - |
| 1777995913 | 10° C | 60% | 1012.2 hPa | 0 mm | - | 206 W/m² | - |
| 1777995609 | 10° C | 61% | 1012.2 hPa | 0 mm | - | 181 W/m² | - |
| 1777995307 | 10° C | 59% | 1012.2 hPa | 0 mm | - | 179 W/m² | - |
| 1777995003 | 10° C | 59% | 1012.2 hPa | 0 mm | - | 225 W/m² | - |
| 1777994701 | 10° C | 60% | 1012.1 hPa | 0 mm | - | 282 W/m² | - |
* Rain latest hour (hover to see other rain measurements)
** Current wind speed in m/s (hover to see current wind gust speed)